sep=;
Quaero Capital Funds (Lux) - World Opportunities A CHF Capitalisation - LU1539115680 (CHF)
Date;Monnaie;Prix actuel;Quota de participation de capital en %;Part de la fortune du fonds en %;Quota d'immobilier en %;ADDI
2020-07-01;CHF;108.68;;;;
2020-07-02;CHF;109.88;;;;
2020-07-03;CHF;109.74;;;;
2020-07-06;CHF;112.4;;;;
2020-07-07;CHF;111.83;;;;
2020-07-08;CHF;113.01;;;;
2020-07-09;CHF;113.86;;;;
2020-07-10;CHF;114.46;;;;
2020-07-13;CHF;113.65;;;;
2020-07-14;CHF;113.82;;;;
2020-07-15;CHF;114.94;;;;
2020-07-16;CHF;113.98;;;;
2020-07-17;CHF;114.55;;;;
2020-07-20;CHF;116.01;;;;
2020-07-21;CHF;115.98;;;;
2020-07-22;CHF;116.24;;;;
2020-07-23;CHF;114.54;;;;
2020-07-24;CHF;113.51;;;;
2020-07-27;CHF;114.89;;;;
2020-07-28;CHF;114.32;;;;
2020-07-29;CHF;115.27;;;;
2020-07-30;CHF;114.82;;;;
2020-07-31;CHF;115.05;;;;
2020-08-03;CHF;116.43;;;;
2020-08-04;CHF;116.91;;;;
2020-08-05;CHF;118.21;;;;
2020-08-06;CHF;118.61;;;;
2020-08-07;CHF;117.43;;;;
2020-08-10;CHF;116.7;;;;
2020-08-11;CHF;116.37;;;;
2020-08-12;CHF;118.35;;;;
2020-08-13;CHF;118.31;;;;
2020-08-14;CHF;117.76;;;;
2020-08-17;CHF;119.12;;;;
2020-08-18;CHF;119.64;;;;
2020-08-19;CHF;119.33;;;;
2020-08-20;CHF;119.85;;;;
2020-08-21;CHF;120.15;;;;
2020-08-24;CHF;121.36;;;;
2020-08-25;CHF;121.99;;;;
2020-08-26;CHF;124.28;;;;
2020-08-27;CHF;124.16;;;;
2020-08-28;CHF;124.66;;;;
2020-08-31;CHF;124.67;;;;
2020-09-01;CHF;125.56;;;;
2020-09-02;CHF;126.55;;;;
2020-09-03;CHF;123.32;;;;
2020-09-04;CHF;121.78;;;;
2020-09-07;CHF;122.31;;;;
2020-09-08;CHF;118.97;;;;
2020-09-09;CHF;120.99;;;;
2020-09-10;CHF;120.14;;;;
2020-09-11;CHF;119.94;;;;
2020-09-14;CHF;121.47;;;;
2020-09-15;CHF;122.44;;;;
2020-09-16;CHF;121.95;;;;
2020-09-17;CHF;120.73;;;;
2020-09-18;CHF;120.17;;;;
2020-09-21;CHF;118.87;;;;
2020-09-22;CHF;119.24;;;;
2020-09-23;CHF;117.28;;;;
2020-09-24;CHF;116.91;;;;
2020-09-25;CHF;118.05;;;;
2020-09-28;CHF;119.77;;;;
2020-09-29;CHF;119.65;;;;
2020-09-30;CHF;120.31;;;;
2020-10-01;CHF;121.15;;;;
2020-10-02;CHF;119.73;;;;
2020-10-05;CHF;121.44;;;;
2020-10-06;CHF;120.63;;;;
2020-10-07;CHF;121.7;;;;
2020-10-08;CHF;122.1;;;;
2020-10-09;CHF;123.35;;;;
2020-10-12;CHF;125.11;;;;
2020-10-13;CHF;124.95;;;;
2020-10-14;CHF;124.43;;;;
2020-10-15;CHF;123.09;;;;
2020-10-16;CHF;123.34;;;;
2020-10-19;CHF;122.27;;;;
2020-10-20;CHF;122.98;;;;
2020-10-21;CHF;122.49;;;;
2020-10-22;CHF;122.19;;;;
2020-10-23;CHF;122.67;;;;
2020-10-26;CHF;120.93;;;;
2020-10-27;CHF;121.1;;;;
2020-10-28;CHF;117.17;;;;
2020-10-29;CHF;118.03;;;;
2020-10-30;CHF;116.56;;;;
2020-11-02;CHF;117.24;;;;
2020-11-03;CHF;119.43;;;;
2020-11-04;CHF;122.45;;;;
2020-11-05;CHF;125.09;;;;
2020-11-06;CHF;125.32;;;;
2020-11-09;CHF;126.8;;;;
2020-11-10;CHF;125.33;;;;
2020-11-11;CHF;126.38;;;;
2020-11-12;CHF;126.12;;;;
2020-11-13;CHF;127.1;;;;
2020-11-16;CHF;128.81;;;;
2020-11-17;CHF;128.66;;;;
2020-11-18;CHF;128.18;;;;
2020-11-19;CHF;128.94;;;;
2020-11-20;CHF;128.87;;;;
2020-11-23;CHF;129.21;;;;
2020-11-24;CHF;130.47;;;;
2020-11-25;CHF;131.02;;;;
2020-11-26;CHF;131.07;;;;
2020-11-27;CHF;132.35;;;;
2020-11-30;CHF;132.63;;;;
2020-12-01;CHF;133.22;;;;
2020-12-02;CHF;133.32;;;;
2020-12-03;CHF;134.68;;;;
2020-12-04;CHF;135.35;;;;
2020-12-07;CHF;136.11;;;;
2020-12-08;CHF;136.55;;;;
2020-12-09;CHF;134.72;;;;
2020-12-10;CHF;135.43;;;;
2020-12-11;CHF;135.34;;;;
2020-12-14;CHF;135.61;;;;
2020-12-15;CHF;136.38;;;;
2020-12-16;CHF;136.94;;;;
2020-12-17;CHF;138.33;;;;
2020-12-18;CHF;138.31;;;;
2020-12-21;CHF;136.78;;;;
2020-12-22;CHF;136.6;;;;
2020-12-23;CHF;137.15;;;;
2020-12-28;CHF;136.88;;;;
2020-12-29;CHF;137.35;;;;
2020-12-30;CHF;137.62;;;;
2020-12-31;CHF;137.18;;;;
2021-01-04;CHF;136.8;;;;
2021-01-05;CHF;137.04;;;;
2021-01-06;CHF;136.4;;;;
2021-01-07;CHF;137.15;;;;
2021-01-08;CHF;137.95;;;;
2021-01-11;CHF;136.86;;;;
2021-01-12;CHF;137.59;;;;
2021-01-13;CHF;137.79;;;;
2021-01-14;CHF;137.99;;;;
2021-01-15;CHF;136.75;;;;
2021-01-18;CHF;136.77;;;;
2021-01-19;CHF;137.87;;;;
2021-01-20;CHF;139.38;;;;
2021-01-21;CHF;140.11;;;;
2021-01-22;CHF;140.34;;;;
2021-01-25;CHF;140.17;;;;
2021-01-26;CHF;140.69;;;;
2021-01-27;CHF;138.55;;;;
2021-01-28;CHF;139.37;;;;
2021-01-29;CHF;137.94;;;;
2021-02-01;CHF;139.05;;;;
2021-02-02;CHF;140.77;;;;
2021-02-03;CHF;141.5;;;;
2021-02-04;CHF;142.9;;;;
2021-02-05;CHF;143.43;;;;
2021-02-08;CHF;145.05;;;;
2021-02-09;CHF;145.34;;;;
2021-02-10;CHF;145.55;;;;
2021-02-11;CHF;146.19;;;;
2021-02-12;CHF;146.25;;;;
2021-02-15;CHF;146.89;;;;
2021-02-16;CHF;146.84;;;;
2021-02-17;CHF;145.3;;;;
2021-02-18;CHF;143.91;;;;
2021-02-19;CHF;144.81;;;;
2021-02-22;CHF;142.91;;;;
2021-02-23;CHF;142.2;;;;
2021-02-24;CHF;143.05;;;;
2021-02-25;CHF;140.37;;;;
2021-02-26;CHF;139.04;;;;
2021-03-01;CHF;141.49;;;;
2021-03-02;CHF;139.92;;;;
2021-03-03;CHF;137.98;;;;
2021-03-04;CHF;136.25;;;;
2021-03-05;CHF;135.38;;;;
2021-03-08;CHF;134.53;;;;
2021-03-09;CHF;137.19;;;;
2021-03-10;CHF;137.49;;;;
2021-03-11;CHF;140.75;;;;
2021-03-12;CHF;140.1;;;;
2021-03-15;CHF;140.83;;;;
2021-03-16;CHF;141.22;;;;
2021-03-17;CHF;141.23;;;;
2021-03-18;CHF;139;;;;
2021-03-19;CHF;138.91;;;;
2021-03-22;CHF;139.48;;;;
2021-03-23;CHF;137.85;;;;
2021-03-24;CHF;135.28;;;;
2021-03-25;CHF;135.09;;;;
2021-03-26;CHF;135.94;;;;
2021-03-29;CHF;134.98;;;;
2021-03-30;CHF;135.58;;;;
2021-03-31;CHF;137.15;;;;
2021-04-01;CHF;139.31;;;;
2021-04-06;CHF;140.98;;;;
2021-04-07;CHF;140.04;;;;
2021-04-08;CHF;140.99;;;;
2021-04-09;CHF;141.46;;;;
2021-04-12;CHF;141.07;;;;
2021-04-13;CHF;141.97;;;;
2021-04-14;CHF;142.26;;;;
2021-04-15;CHF;142.78;;;;
2021-04-16;CHF;143.64;;;;
2021-04-19;CHF;142.75;;;;
2021-04-20;CHF;140.6;;;;
2021-04-21;CHF;141.78;;;;
2021-04-22;CHF;141.58;;;;
2021-04-23;CHF;142.48;;;;
2021-04-26;CHF;143.64;;;;
2021-04-27;CHF;143.68;;;;
2021-04-28;CHF;143.76;;;;
2021-04-29;CHF;143.49;;;;
2021-04-30;CHF;142.55;;;;
2021-05-03;CHF;143.12;;;;
2021-05-04;CHF;140.61;;;;
2021-05-05;CHF;140.27;;;;
2021-05-06;CHF;140.38;;;;
2021-05-07;CHF;142.16;;;;
2021-05-10;CHF;140.81;;;;
2021-05-11;CHF;139.75;;;;
2021-05-12;CHF;138.13;;;;
2021-05-14;CHF;139.95;;;;
2021-05-17;CHF;139.96;;;;
2021-05-18;CHF;140.42;;;;
2021-05-19;CHF;139.55;;;;
2021-05-20;CHF;141.03;;;;
2021-05-21;CHF;140.49;;;;
2021-05-25;CHF;142.15;;;;
2021-05-26;CHF;143.4;;;;
2021-05-27;CHF;144.19;;;;
2021-05-28;CHF;144.67;;;;
2021-05-31;CHF;144.8;;;;
2021-06-01;CHF;146.18;;;;
2021-06-02;CHF;146.71;;;;
2021-06-03;CHF;145.39;;;;
2021-06-04;CHF;146.7;;;;
2021-06-07;CHF;147.75;;;;
2021-06-08;CHF;147.43;;;;
2021-06-09;CHF;147.51;;;;
2021-06-10;CHF;147.74;;;;
2021-06-11;CHF;148.31;;;;
2021-06-14;CHF;148.47;;;;
2021-06-15;CHF;147.32;;;;
2021-06-16;CHF;146.57;;;;
2021-06-17;CHF;147.32;;;;
2021-06-18;CHF;146.05;;;;
2021-06-21;CHF;147.12;;;;
2021-06-22;CHF;148.08;;;;
2021-06-24;CHF;149.86;;;;
2021-06-25;CHF;150.2;;;;
2021-06-28;CHF;150.18;;;;
2021-06-29;CHF;150.59;;;;
2021-06-30;CHF;150.22;;;;
2021-07-01;CHF;150.17;;;;
2021-07-02;CHF;149.86;;;;
2021-07-05;CHF;149.93;;;;
2021-07-06;CHF;149.31;;;;
2021-07-07;CHF;147.93;;;;
2021-07-08;CHF;147.33;;;;
2021-07-09;CHF;148.76;;;;
2021-07-12;CHF;149.69;;;;
2021-07-13;CHF;149.15;;;;
2021-07-14;CHF;148.61;;;;
2021-07-15;CHF;148.41;;;;
2021-07-16;CHF;147.98;;;;
2021-07-19;CHF;146.91;;;;
2021-07-20;CHF;147.68;;;;
2021-07-21;CHF;150.66;;;;
2021-07-22;CHF;150.93;;;;
2021-07-23;CHF;150.53;;;;
2021-07-26;CHF;149.78;;;;
2021-07-27;CHF;147.54;;;;
2021-07-28;CHF;150.16;;;;
2021-07-29;CHF;150.9;;;;
2021-07-30;CHF;150.27;;;;
2021-08-02;CHF;150.33;;;;
2021-08-03;CHF;151.12;;;;
2021-08-04;CHF;152.35;;;;
2021-08-05;CHF;153.01;;;;
2021-08-06;CHF;152.3;;;;
2021-08-09;CHF;154.05;;;;
2021-08-10;CHF;152.82;;;;
2021-08-11;CHF;151.43;;;;
2021-08-12;CHF;151.8;;;;
2021-08-13;CHF;151.52;;;;
2021-08-16;CHF;149.83;;;;
2021-08-17;CHF;149.25;;;;
2021-08-18;CHF;148.85;;;;
2021-08-19;CHF;146.93;;;;
2021-08-20;CHF;147.78;;;;
2021-08-23;CHF;149.97;;;;
2021-08-24;CHF;150.05;;;;
2021-08-25;CHF;150.47;;;;
2021-08-26;CHF;149.76;;;;
2021-08-27;CHF;150;;;;
2021-08-30;CHF;150.11;;;;
2021-08-31;CHF;150.29;;;;
2021-09-01;CHF;151.3;;;;
2021-09-02;CHF;151.83;;;;
2021-09-03;CHF;151.89;;;;
2021-09-06;CHF;152.13;;;;
2021-09-07;CHF;152.88;;;;
2021-09-08;CHF;151.51;;;;
2021-09-09;CHF;152.27;;;;
2021-09-10;CHF;151.43;;;;
2021-09-13;CHF;150.32;;;;
2021-09-14;CHF;150.5;;;;
2021-09-15;CHF;150.42;;;;
2021-09-16;CHF;150.72;;;;
2021-09-17;CHF;149.78;;;;
2021-09-20;CHF;147.36;;;;
2021-09-21;CHF;148.43;;;;
2021-09-22;CHF;150.18;;;;
2021-09-23;CHF;152.04;;;;
2021-09-24;CHF;150.97;;;;
2021-09-27;CHF;150.19;;;;
2021-09-28;CHF;146.25;;;;
2021-09-29;CHF;145.6;;;;
2021-09-30;CHF;145.37;;;;
2021-10-01;CHF;145.14;;;;
2021-10-04;CHF;143.15;;;;
2021-10-05;CHF;144.77;;;;
2021-10-06;CHF;143.85;;;;
2021-10-07;CHF;145.63;;;;
2021-10-08;CHF;145.19;;;;
2021-10-11;CHF;145.18;;;;
2021-10-12;CHF;145.19;;;;
2021-10-13;CHF;146.31;;;;
2021-10-14;CHF;148.3;;;;
2021-10-15;CHF;149.39;;;;
2021-10-18;CHF;150.28;;;;
2021-10-19;CHF;151.04;;;;
2021-10-20;CHF;150.85;;;;
2021-10-21;CHF;151.61;;;;
2021-10-22;CHF;150.81;;;;
2021-10-25;CHF;152.69;;;;
2021-10-26;CHF;152.77;;;;
2021-10-27;CHF;151.8;;;;
2021-10-28;CHF;152.95;;;;
2021-10-29;CHF;152.59;;;;
2021-11-02;CHF;153.2;;;;
2021-11-03;CHF;153.3;;;;
2021-11-04;CHF;153.2;;;;
2021-11-05;CHF;151.94;;;;
2021-11-08;CHF;152.98;;;;
2021-11-09;CHF;152.25;;;;
2021-11-10;CHF;150.68;;;;
2021-11-11;CHF;151.25;;;;
2021-11-12;CHF;152.72;;;;
2021-11-15;CHF;152.3;;;;
2021-11-16;CHF;152.73;;;;
2021-11-17;CHF;151.96;;;;
2021-11-18;CHF;152.04;;;;
2021-11-19;CHF;151.72;;;;
2021-11-22;CHF;150.71;;;;
2021-11-23;CHF;149.74;;;;
2021-11-24;CHF;150.18;;;;
2021-11-25;CHF;150.53;;;;
2021-11-26;CHF;149.13;;;;
2021-11-29;CHF;151.53;;;;
2021-11-30;CHF;149.37;;;;
2021-12-01;CHF;147.32;;;;
2021-12-02;CHF;147.1;;;;
2021-12-03;CHF;144.25;;;;
2021-12-06;CHF;144.66;;;;
2021-12-07;CHF;148.89;;;;
2021-12-08;CHF;149.7;;;;
2021-12-09;CHF;147.86;;;;
2021-12-10;CHF;147.27;;;;
2021-12-13;CHF;145.85;;;;
2021-12-14;CHF;144.7;;;;
2021-12-15;CHF;145.89;;;;
2021-12-16;CHF;144.67;;;;
2021-12-17;CHF;144.28;;;;
2021-12-20;CHF;141.95;;;;
2021-12-21;CHF;144.89;;;;
2021-12-22;CHF;146.03;;;;
2021-12-23;CHF;147.17;;;;
2021-12-27;CHF;148.06;;;;
2021-12-28;CHF;147.49;;;;
2021-12-29;CHF;147.27;;;;
2021-12-30;CHF;147.97;;;;
2021-12-31;CHF;147.73;;;;
2022-01-03;CHF;148.37;;;;
2022-01-04;CHF;147.53;;;;
2022-01-05;CHF;144.76;;;;
2022-01-06;CHF;142.95;;;;
2022-01-07;CHF;142.11;;;;
2022-01-10;CHF;141.61;;;;
2022-01-11;CHF;143.29;;;;
2022-01-12;CHF;144.58;;;;
2022-01-13;CHF;141.93;;;;
2022-01-14;CHF;141.4;;;;
2022-01-17;CHF;141.7;;;;
2022-01-18;CHF;138.23;;;;
2022-01-19;CHF;137.32;;;;
2022-01-20;CHF;137.29;;;;
2022-01-21;CHF;133.68;;;;
2022-01-24;CHF;131.04;;;;
2022-01-25;CHF;129.55;;;;
2022-01-26;CHF;130.51;;;;
2022-01-27;CHF;128.47;;;;
2022-01-28;CHF;130.66;;;;
2022-01-31;CHF;134.19;;;;
2022-02-01;CHF;135.98;;;;
2022-02-02;CHF;136.08;;;;
2022-02-03;CHF;133.24;;;;
2022-02-04;CHF;134.41;;;;
2022-02-07;CHF;134.47;;;;
2022-02-08;CHF;134.7;;;;
2022-02-09;CHF;138.54;;;;
2022-02-10;CHF;137.68;;;;
2022-02-11;CHF;135.02;;;;
2022-02-14;CHF;133.46;;;;
2022-02-15;CHF;136.78;;;;
2022-02-16;CHF;136.75;;;;
2022-02-17;CHF;134.39;;;;
2022-02-18;CHF;132.35;;;;
2022-02-21;CHF;131.41;;;;
2022-02-22;CHF;130.5;;;;
2022-02-23;CHF;128.57;;;;
2022-02-24;CHF;128.56;;;;
2022-02-25;CHF;130.84;;;;
2022-02-28;CHF;131.26;;;;
2022-03-01;CHF;128.65;;;;
2022-03-02;CHF;129.36;;;;
2022-03-03;CHF;126.71;;;;
2022-03-04;CHF;123.01;;;;
2022-03-07;CHF;118.37;;;;
2022-03-08;CHF;117.06;;;;
2022-03-09;CHF;122.73;;;;
2022-03-10;CHF;121.01;;;;
2022-03-11;CHF;118.79;;;;
2022-03-14;CHF;116.21;;;;
2022-03-15;CHF;117.1;;;;
2022-03-16;CHF;124.08;;;;
2022-03-17;CHF;126.26;;;;
2022-03-18;CHF;129.32;;;;
2022-03-21;CHF;128.37;;;;
2022-03-22;CHF;130.38;;;;
2022-03-23;CHF;129.18;;;;
2022-03-24;CHF;130.25;;;;
2022-03-25;CHF;128.88;;;;
2022-03-28;CHF;130.13;;;;
2022-03-29;CHF;133.25;;;;
2022-03-30;CHF;132.75;;;;
2022-03-31;CHF;130.86;;;;
2022-04-01;CHF;131.01;;;;
2022-04-04;CHF;133.03;;;;
2022-04-05;CHF;130.68;;;;
2022-04-06;CHF;127.06;;;;
2022-04-07;CHF;126.86;;;;
2022-04-08;CHF;126.27;;;;
2022-04-11;CHF;124.45;;;;
2022-04-12;CHF;124.38;;;;
2022-04-13;CHF;125.9;;;;
2022-04-14;CHF;124.94;;;;
2022-04-19;CHF;125.11;;;;
2022-04-20;CHF;124.28;;;;
2022-04-21;CHF;122.41;;;;
2022-04-22;CHF;119.15;;;;
2022-04-25;CHF;118.25;;;;
2022-04-26;CHF;115.15;;;;
2022-04-27;CHF;115.23;;;;
2022-04-28;CHF;117.14;;;;
2022-04-29;CHF;115.86;;;;
2022-05-02;CHF;116.26;;;;
2022-05-03;CHF;116.62;;;;
2022-05-04;CHF;118.04;;;;
2022-05-05;CHF;114.23;;;;
2022-05-06;CHF;112.36;;;;
2022-05-10;CHF;107.87;;;;
2022-05-11;CHF;107.35;;;;
2022-05-12;CHF;106.22;;;;
2022-05-13;CHF;109.1;;;;
2022-05-16;CHF;108.52;;;;
2022-05-17;CHF;110.77;;;;
2022-05-18;CHF;107.81;;;;
2022-05-19;CHF;107.59;;;;
2022-05-20;CHF;106.79;;;;
2022-05-23;CHF;108.74;;;;
2022-05-24;CHF;107.24;;;;
2022-05-25;CHF;107.68;;;;
2022-05-27;CHF;112.56;;;;
2022-05-30;CHF;113.5;;;;
2022-05-31;CHF;113.24;;;;
2022-06-01;CHF;112.1;;;;
2022-06-02;CHF;114.18;;;;
2022-06-03;CHF;112.44;;;;
2022-06-07;CHF;113.71;;;;
2022-06-08;CHF;113.69;;;;
2022-06-09;CHF;110.67;;;;
2022-06-10;CHF;107.11;;;;
2022-06-13;CHF;102.57;;;;
2022-06-14;CHF;102.04;;;;
2022-06-15;CHF;103.96;;;;
2022-06-16;CHF;100.91;;;;
2022-06-17;CHF;101.06;;;;
2022-06-20;CHF;101.25;;;;
2022-06-21;CHF;103.73;;;;
2022-06-22;CHF;103.4;;;;
2022-06-24;CHF;107.36;;;;
2022-06-27;CHF;106.99;;;;
2022-06-28;CHF;105.12;;;;
2022-06-29;CHF;104.75;;;;
2022-06-30;CHF;103.3;;;;
2022-07-01;CHF;103.77;;;;
2022-07-04;CHF;104.13;;;;
2022-07-05;CHF;103.46;;;;
2022-07-06;CHF;104.16;;;;
2022-07-07;CHF;106.31;;;;
2022-07-08;CHF;106.88;;;;
2022-07-11;CHF;105.2;;;;
2022-07-12;CHF;104.24;;;;
2022-07-13;CHF;103.92;;;;
2022-07-14;CHF;102.97;;;;
2022-07-15;CHF;104.97;;;;
2022-07-18;CHF;105.29;;;;
2022-07-19;CHF;107.87;;;;
2022-07-20;CHF;108.64;;;;
2022-07-21;CHF;109.6;;;;
2022-07-22;CHF;108.49;;;;
2022-07-25;CHF;108.1;;;;
2022-07-26;CHF;106.45;;;;
2022-07-27;CHF;108.79;;;;
2022-07-28;CHF;110.44;;;;
2022-07-29;CHF;112.48;;;;
2022-08-01;CHF;112.12;;;;
2022-08-02;CHF;111.3;;;;
2022-08-03;CHF;113.45;;;;
2022-08-04;CHF;114.42;;;;
2022-08-05;CHF;113.35;;;;
2022-08-08;CHF;113.4;;;;
2022-08-09;CHF;111.83;;;;
2022-08-10;CHF;114.06;;;;
2022-08-11;CHF;114.6;;;;
2022-08-12;CHF;115.49;;;;
2022-08-16;CHF;114.88;;;;
2022-08-17;CHF;113.49;;;;
2022-08-18;CHF;113.44;;;;
2022-08-19;CHF;111.17;;;;
2022-08-22;CHF;108.59;;;;
2022-08-23;CHF;108.8;;;;
2022-08-24;CHF;109.5;;;;
2022-08-25;CHF;110.74;;;;
2022-08-26;CHF;107.51;;;;
2022-08-29;CHF;107;;;;
2022-08-30;CHF;106.19;;;;
2022-08-31;CHF;105.15;;;;
2022-09-01;CHF;104.05;;;;
2022-09-02;CHF;104.36;;;;
2022-09-05;CHF;103.62;;;;
2022-09-06;CHF;102.93;;;;
2022-09-07;CHF;104.21;;;;
2022-09-08;CHF;104.58;;;;
2022-09-09;CHF;106.52;;;;
2022-09-12;CHF;107.88;;;;
2022-09-13;CHF;103.66;;;;
2022-09-14;CHF;104.27;;;;
2022-09-15;CHF;102.27;;;;
2022-09-16;CHF;101.19;;;;
2022-09-19;CHF;101.31;;;;
2022-09-20;CHF;100.69;;;;
2022-09-21;CHF;99.47;;;;
2022-09-22;CHF;97.44;;;;
2022-09-23;CHF;95.18;;;;
2022-09-26;CHF;94.49;;;;
2022-09-27;CHF;94.78;;;;
2022-09-28;CHF;95.77;;;;
2022-09-29;CHF;93.88;;;;
2022-09-30;CHF;93.26;;;;
2022-10-03;CHF;94.29;;;;
2022-10-04;CHF;97.27;;;;
2022-10-05;CHF;96.75;;;;
2022-10-06;CHF;96.09;;;;
2022-10-07;CHF;93.9;;;;
2022-10-10;CHF;92.78;;;;
2022-10-11;CHF;92.06;;;;
2022-10-12;CHF;91.84;;;;
2022-10-13;CHF;93.27;;;;
2022-10-14;CHF;92.43;;;;
2022-10-17;CHF;94.77;;;;
2022-10-18;CHF;95.26;;;;
2022-10-19;CHF;94.03;;;;
2022-10-20;CHF;93.92;;;;
2022-10-21;CHF;94.96;;;;
2022-10-24;CHF;96.07;;;;
2022-10-25;CHF;98.17;;;;
2022-10-26;CHF;98.18;;;;
2022-10-27;CHF;97.31;;;;
2022-10-28;CHF;98.74;;;;
2022-10-31;CHF;97.77;;;;
2022-11-02;CHF;95.87;;;;
2022-11-03;CHF;94.31;;;;
2022-11-04;CHF;96.95;;;;
2022-11-07;CHF;98.21;;;;
2022-11-08;CHF;98.95;;;;
2022-11-09;CHF;96.95;;;;
2022-11-10;CHF;102.02;;;;
2022-11-11;CHF;104.69;;;;
2022-11-14;CHF;104.4;;;;
2022-11-15;CHF;105.89;;;;
2022-11-16;CHF;104.9;;;;
2022-11-17;CHF;103.89;;;;
2022-11-18;CHF;104.23;;;;
2022-11-21;CHF;102.94;;;;
2022-11-22;CHF;104.26;;;;
2022-11-23;CHF;105.27;;;;
2022-11-24;CHF;105.54;;;;
2022-11-25;CHF;105.31;;;;
2022-11-28;CHF;103.71;;;;
2022-11-29;CHF;103.48;;;;
2022-11-30;CHF;106.39;;;;
2022-12-01;CHF;107.37;;;;
2022-12-02;CHF;107.11;;;;
2022-12-05;CHF;105.66;;;;
2022-12-06;CHF;104.14;;;;
2022-12-07;CHF;103.79;;;;
2022-12-08;CHF;104.71;;;;
2022-12-09;CHF;104.27;;;;
2022-12-12;CHF;104.49;;;;
2022-12-13;CHF;106.76;;;;
2022-12-14;CHF;106.54;;;;
2022-12-15;CHF;103.78;;;;
2022-12-16;CHF;101.86;;;;
2022-12-19;CHF;100.82;;;;
2022-12-20;CHF;101.27;;;;
2022-12-21;CHF;103.08;;;;
2022-12-22;CHF;101.63;;;;
2022-12-23;CHF;101.56;;;;
2022-12-27;CHF;100.72;;;;
2022-12-28;CHF;99.92;;;;
2022-12-29;CHF;101.47;;;;
2022-12-30;CHF;100.93;;;;
2023-01-02;CHF;101.32;;;;
2023-01-03;CHF;101.22;;;;
2023-01-04;CHF;102.25;;;;
2023-01-05;CHF;101.25;;;;
2023-01-06;CHF;103.67;;;;
2023-01-09;CHF;105.45;;;;
2023-01-10;CHF;105.8;;;;
2023-01-11;CHF;106.81;;;;
2023-01-12;CHF;107.45;;;;
2023-01-13;CHF;108.06;;;;
2023-01-16;CHF;108.49;;;;
2023-01-17;CHF;108.41;;;;
2023-01-18;CHF;108.05;;;;
2023-01-19;CHF;106.79;;;;
2023-01-20;CHF;108.49;;;;
2023-01-23;CHF;110.23;;;;
2023-01-24;CHF;110.06;;;;
2023-01-25;CHF;109.91;;;;
2023-01-26;CHF;110.8;;;;
2023-01-27;CHF;111.32;;;;
2023-01-30;CHF;109.83;;;;
2023-01-31;CHF;109.98;;;;
2023-02-01;CHF;111.4;;;;
2023-02-02;CHF;113.52;;;;
2023-02-03;CHF;112.28;;;;
2023-02-06;CHF;110.7;;;;
2023-02-07;CHF;111.65;;;;
2023-02-08;CHF;110.6;;;;
2023-02-09;CHF;110.8;;;;
2023-02-10;CHF;109.87;;;;
2023-02-13;CHF;110.89;;;;
2023-02-14;CHF;111.69;;;;
2023-02-15;CHF;112.14;;;;
2023-02-16;CHF;110.86;;;;
2023-02-17;CHF;110;;;;
2023-02-20;CHF;110.21;;;;
2023-02-21;CHF;108.26;;;;
2023-02-22;CHF;107.63;;;;
2023-02-23;CHF;107.79;;;;
2023-02-24;CHF;106;;;;
2023-02-27;CHF;106.78;;;;
2023-02-28;CHF;106.09;;;;
2023-03-01;CHF;105.62;;;;
2023-03-02;CHF;106.44;;;;
2023-03-03;CHF;108.17;;;;
2023-03-06;CHF;108.53;;;;
2023-03-07;CHF;106.92;;;;
2023-03-08;CHF;106.91;;;;
2023-03-09;CHF;105.85;;;;
2023-03-10;CHF;104.94;;;;
2023-03-13;CHF;104.53;;;;
2023-03-14;CHF;106.47;;;;
2023-03-15;CHF;104.28;;;;
2023-03-16;CHF;106.28;;;;
2023-03-17;CHF;105.78;;;;
2023-03-20;CHF;106.62;;;;
2023-03-21;CHF;108.07;;;;
2023-03-22;CHF;107.59;;;;
2023-03-23;CHF;108.93;;;;
2023-03-24;CHF;107.84;;;;
2023-03-27;CHF;108;;;;
2023-03-28;CHF;108.14;;;;
2023-03-29;CHF;109.57;;;;
2023-03-30;CHF;110.75;;;;
2023-03-31;CHF;111.77;;;;
2023-04-03;CHF;112.07;;;;
2023-04-04;CHF;111.64;;;;
2023-04-05;CHF;110.8;;;;
2023-04-06;CHF;111.36;;;;
2023-04-11;CHF;111.73;;;;
2023-04-12;CHF;111.22;;;;
2023-04-13;CHF;113.16;;;;
2023-04-14;CHF;113.09;;;;
2023-04-17;CHF;112.32;;;;
2023-04-18;CHF;112.73;;;;
2023-04-19;CHF;112.43;;;;
2023-04-20;CHF;112.13;;;;
2023-04-21;CHF;112.09;;;;
2023-04-24;CHF;111.9;;;;
2023-04-25;CHF;110.22;;;;
2023-04-26;CHF;110.57;;;;
2023-04-27;CHF;111.34;;;;
2023-04-28;CHF;112.71;;;;
2023-05-02;CHF;111.4;;;;
2023-05-03;CHF;111.52;;;;
2023-05-04;CHF;111.15;;;;
2023-05-05;CHF;112.67;;;;
2023-05-08;CHF;113.05;;;;
2023-05-10;CHF;112.59;;;;
2023-05-11;CHF;112.47;;;;
2023-05-12;CHF;112.3;;;;
2023-05-15;CHF;112.76;;;;
2023-05-16;CHF;111.88;;;;
2023-05-17;CHF;112.28;;;;
2023-05-19;CHF;112.98;;;;
2023-05-22;CHF;113.19;;;;
2023-05-23;CHF;112.08;;;;
2023-05-24;CHF;110.49;;;;
2023-05-25;CHF;111.8;;;;
2023-05-26;CHF;113.25;;;;
2023-05-30;CHF;112.69;;;;
2023-05-31;CHF;111.15;;;;
2023-06-01;CHF;112.24;;;;
2023-06-02;CHF;113.53;;;;
2023-06-05;CHF;113.2;;;;
2023-06-06;CHF;113.61;;;;
2023-06-07;CHF;112.66;;;;
2023-06-08;CHF;113.18;;;;
2023-06-09;CHF;113.1;;;;
2023-06-12;CHF;114.22;;;;
2023-06-13;CHF;114.81;;;;
2023-06-14;CHF;115.35;;;;
2023-06-15;CHF;116.2;;;;
2023-06-16;CHF;116.42;;;;
2023-06-19;CHF;115.6;;;;
2023-06-20;CHF;114.47;;;;
2023-06-21;CHF;113.53;;;;
2023-06-22;CHF;113.5;;;;
2023-06-26;CHF;112.37;;;;
2023-06-27;CHF;112.81;;;;
2023-06-28;CHF;113.26;;;;
2023-06-29;CHF;113.3;;;;
2023-06-30;CHF;114.41;;;;
2023-07-03;CHF;114.36;;;;
2023-07-04;CHF;114.53;;;;
2023-07-05;CHF;113.93;;;;
2023-07-06;CHF;111.97;;;;
2023-07-07;CHF;112.18;;;;
2023-07-10;CHF;112.71;;;;
2023-07-11;CHF;113.83;;;;
2023-07-12;CHF;115.6;;;;
2023-07-13;CHF;116.81;;;;
2023-07-14;CHF;116.83;;;;
2023-07-17;CHF;115.95;;;;
2023-07-18;CHF;116.54;;;;
2023-07-19;CHF;116.35;;;;
2023-07-20;CHF;115.79;;;;
2023-07-21;CHF;116.03;;;;
2023-07-24;CHF;116.18;;;;
2023-07-25;CHF;116.39;;;;
2023-07-26;CHF;116.22;;;;
2023-07-27;CHF;116.36;;;;
2023-07-28;CHF;117.28;;;;
2023-07-31;CHF;117.81;;;;
2023-08-01;CHF;117.08;;;;
2023-08-02;CHF;114.54;;;;
2023-08-03;CHF;114.24;;;;
2023-08-04;CHF;114.56;;;;
2023-08-07;CHF;114.54;;;;
2023-08-08;CHF;113.46;;;;
2023-08-09;CHF;113.24;;;;
2023-08-10;CHF;114.12;;;;
2023-08-11;CHF;113.01;;;;
2023-08-14;CHF;113.04;;;;
2023-08-16;CHF;110.95;;;;
2023-08-17;CHF;110.29;;;;
2023-08-18;CHF;109.87;;;;
2023-08-21;CHF;110.67;;;;
2023-08-22;CHF;110.96;;;;
2023-08-23;CHF;111.6;;;;
2023-08-24;CHF;110.45;;;;
2023-08-25;CHF;110.57;;;;
2023-08-28;CHF;111.54;;;;
2023-08-29;CHF;112.73;;;;
2023-08-30;CHF;113.51;;;;
2023-08-31;CHF;113.04;;;;
2023-09-01;CHF;113.08;;;;
2023-09-04;CHF;113.11;;;;
2023-09-05;CHF;112.42;;;;
2023-09-06;CHF;111.43;;;;
2023-09-07;CHF;110.91;;;;
2023-09-08;CHF;110.94;;;;
2023-09-11;CHF;111.34;;;;
2023-09-12;CHF;110.94;;;;
2023-09-13;CHF;111.19;;;;
2023-09-14;CHF;112.11;;;;
2023-09-15;CHF;111.84;;;;
2023-09-18;CHF;111.04;;;;
2023-09-19;CHF;110.62;;;;
2023-09-20;CHF;110.19;;;;
2023-09-21;CHF;108.32;;;;
2023-09-22;CHF;108.42;;;;
2023-09-25;CHF;108.05;;;;
2023-09-26;CHF;106.79;;;;
2023-09-27;CHF;106.28;;;;
2023-09-28;CHF;106.91;;;;
2023-09-29;CHF;107.01;;;;
2023-10-02;CHF;106.36;;;;
2023-10-03;CHF;104.97;;;;
2023-10-04;CHF;105.37;;;;
2023-10-05;CHF;105.44;;;;
2023-10-06;CHF;106.69;;;;
2023-10-09;CHF;106.37;;;;
2023-10-10;CHF;107.69;;;;
2023-10-11;CHF;107.46;;;;
2023-10-12;CHF;106.67;;;;
2023-10-13;CHF;105.84;;;;
2023-10-16;CHF;106.11;;;;
2023-10-17;CHF;105.79;;;;
2023-10-18;CHF;104.84;;;;
2023-10-19;CHF;104.32;;;;
2023-10-20;CHF;103.18;;;;
2023-10-23;CHF;103.2;;;;
2023-10-24;CHF;104.14;;;;
2023-10-25;CHF;102.96;;;;
2023-10-26;CHF;101.17;;;;
2023-10-27;CHF;101.08;;;;
2023-10-30;CHF;102.03;;;;
2023-10-31;CHF;103.18;;;;
2023-11-02;CHF;105.99;;;;
2023-11-03;CHF;106.79;;;;
2023-11-06;CHF;106.47;;;;
2023-11-07;CHF;106.45;;;;
2023-11-08;CHF;106.53;;;;
2023-11-09;CHF;106.77;;;;
2023-11-10;CHF;107.19;;;;
2023-11-13;CHF;107.17;;;;
2023-11-14;CHF;109.49;;;;
2023-11-15;CHF;110.02;;;;
2023-11-16;CHF;109.3;;;;
2023-11-17;CHF;109.78;;;;
2023-11-20;CHF;110.76;;;;
2023-11-21;CHF;110.51;;;;
2023-11-22;CHF;110.86;;;;
2023-11-23;CHF;111.01;;;;
2023-11-24;CHF;111.1;;;;
2023-11-27;CHF;110.84;;;;
2023-11-28;CHF;110.77;;;;
2023-11-29;CHF;110.68;;;;
2023-11-30;CHF;110.74;;;;
2023-12-01;CHF;110.58;;;;
2023-12-04;CHF;109.8;;;;
2023-12-05;CHF;109.85;;;;
2023-12-06;CHF;109.68;;;;
2023-12-07;CHF;110.28;;;;
2023-12-08;CHF;110.98;;;;
2023-12-11;CHF;111.58;;;;
2023-12-12;CHF;112.02;;;;
2023-12-13;CHF;112.85;;;;
2023-12-14;CHF;114.54;;;;
2023-12-15;CHF;114.31;;;;
2023-12-18;CHF;114.3;;;;
2023-12-19;CHF;114.78;;;;
2023-12-20;CHF;113.66;;;;
2023-12-21;CHF;114.9;;;;
2023-12-22;CHF;115.2;;;;
2023-12-27;CHF;115.94;;;;
2023-12-28;CHF;116.02;;;;
2023-12-29;CHF;115.77;;;;
2024-01-02;CHF;114.86;;;;
2024-01-03;CHF;113.13;;;;
2024-01-04;CHF;113.12;;;;
2024-01-05;CHF;113.17;;;;
2024-01-08;CHF;114.26;;;;
2024-01-09;CHF;114.07;;;;
2024-01-10;CHF;114.22;;;;
2024-01-11;CHF;114.06;;;;
2024-01-12;CHF;114.86;;;;
2024-01-15;CHF;114.46;;;;
2024-01-16;CHF;114.13;;;;
2024-01-17;CHF;112.94;;;;
2024-01-18;CHF;114.19;;;;
2024-01-19;CHF;115.3;;;;
2024-01-22;CHF;115.13;;;;
2024-01-23;CHF;115.27;;;;
2024-01-24;CHF;116.3;;;;
2024-01-25;CHF;116.23;;;;
2024-01-26;CHF;117.49;;;;
2024-01-29;CHF;117.93;;;;
2024-01-30;CHF;117.73;;;;
2024-01-31;CHF;116.62;;;;
2024-02-01;CHF;117.85;;;;
2024-02-02;CHF;117.72;;;;
2024-02-05;CHF;116.93;;;;
2024-02-06;CHF;117.38;;;;
2024-02-07;CHF;117.64;;;;
2024-02-08;CHF;116.51;;;;
2024-02-09;CHF;117.03;;;;
2024-02-12;CHF;117.24;;;;
2024-02-13;CHF;115.26;;;;
2024-02-14;CHF;116.24;;;;
2024-02-15;CHF;116.92;;;;
2024-02-16;CHF;116.63;;;;
2024-02-19;CHF;116.64;;;;
2024-02-20;CHF;116.6;;;;